Temperature
7 7 7 7 7 6 6 6 6 6 6 6 5 5 5 5 5 4 4 4 4 4 3 3 3 3 2 2 2 1 1 1 0 1 1 1 1 1 1 1 1 1 1
7 7 7 6 6 6 6 6 6 6 6 5 5 5 5 4 4 4 4 4 3 3 3 3 3 2 2 2 1 1 1 0 -0 0 1 0 0 0 0 0 0 0 1
6 6 6 6 6 6 6 6 5 5 5 5 5 5 4 4 4 4 3 3 3 3 2 2 2 2 1 1 1 1 0 -0 -0 -1 -0 -0 -0 -0 -0 -0 -0 -0 0
6 6 6 6 6 5 5 5 5 5 5 5 4 4 4 4 4 3 3 3 3 2 2 2 2 1 1 1 0 0 -0 -1 -1 -1 -1 -1 -1 -1 -1 -1 -0 -0 -0
6 5 5 5 5 5 5 5 5 4 4 4 4 4 4 3 3 3 3 2 2 2 2 1 1 1 1 0 -0 -0 -1 -1 -1 -2 -2 -2 -1 -2 -2 -2 -2 -1 -1
5 5 5 5 5 5 4 4 4 4 4 4 4 3 3 3 3 2 2 2 2 1 1 1 1 0 0 -0 -1 -1 -1 -2 -2 -2 -2 -2 -2 -2 -2 -3 -3 -2 -2
5 5 4 4 4 4 4 4 4 4 3 3 3 3 3 3 2 2 1 1 1 1 1 0 0 -0 -1 -1 -1 -1 -2 -2 -2 -3 -3 -3 -3 -3 -3 -3 -3 -3 -3
4 4 4 4 4 4 4 4 3 3 3 3 3 2 2 2 2 2 1 1 1 1 0 0 -0 -1 -1 -1 -2 -2 -2 -2 -3 -3 -3 -3 -3 -4 -4 -4 -4 -4 -4
4 4 4 4 4 3 3 3 3 3 3 2 2 2 2 2 2 1 1 1 0 0 -0 -0 -1 -1 -1 -2 -2 -2 -2 -3 -3 -3 -3 -4 -4 -4 -4 -5 -5 -5 -5
4 3 3 3 3 3 3 3 2 2 2 2 2 2 1 1 1 1 0 0 0 -0 -0 -1 -1 -2 -2 -2 -3 -3 -3 -3 -3 -4 -4 -4 -4 -5 -5 -5 -5 -6 -6
3 3 3 3 3 2 2 2 2 2 2 2 1 1 1 1 1 1 0 -0 -0 -1 -1 -1 -2 -2 -2 -3 -3 -4 -4 -4 -4 -4 -4 -4 -5 -5 -5 -5 -6 -6 -6
3 3 3 2 2 2 2 2 1 1 1 1 1 1 1 1 1 0 -0 -1 -1 -2 -2 -2 -2 -3 -3 -3 -4 -4 -4 -5 -5 -5 -5 -5 -5 -5 -5 -5 -6 -6 -6
2 2 2 2 2 2 1 1 1 1 1 0 0 0 1 0 0 -0 -1 -1 -2 -2 -2 -2 -3 -3 -4 -4 -4 -4 -5 -5 -5 -5 -5 -5 -5 -5 -6 -6 -6 -6 -6
2 2 2 2 1 1 1 1 0 0 -0 -0 -0 -0 -0 -0 -0 -1 -1 -1 -2 -2 -3 -3 -3 -4 -4 -4 -4 -5 -5 -5 -5 -6 -6 -6 -6 -6 -6 -6 -6 -7 -7
1 1 1 1 1 1 0 0 -0 -0 -1 -1 -1 -1 -1 -1 -1 -2 -2 -2 -3 -3 -3 -4 -4 -4 -4 -5 -5 -5 -5 -5 -6 -6 -6 -6 -6 -6 -7 -7 -7 -7 -7
1 1 1 0 0 0 -0 -0 -0 -1 -1 -1 -1 -2 -2 -2 -2 -2 -3 -3 -3 -4 -4 -4 -4 -4 -5 -5 -5 -5 -5 -6 -6 -6 -6 -7 -7 -7 -7 -7 -7 -8 -8
0 0 0 -0 -0 -1 -1 -1 -1 -1 -1 -1 -2 -2 -2 -3 -3 -3 -3 -3 -4 -4 -5 -5 -5 -5 -5 -5 -5 -6 -6 -6 -6 -6 -7 -7 -7 -7 -7 -8 -8 -8 -8
0 -0 -0 -1 -1 -1 -1 -1 -2 -2 -2 -1 -2 -2 -3 -3 -3 -3 -4 -4 -4 -4 -5 -5 -5 -5 -5 -5 -6 -6 -6 -6 -6 -7 -7 -7 -7 -8 -8 -8 -8 -8 -8
-0 -1 -1 -1 -1 -1 -2 -2 -2 -3 -3 -3 -3 -3 -3 -3 -4 -4 -4 -4 -5 -5 -5 -5 -5 -5 -6 -6 -6 -6 -6 -6 -7 -7 -7 -7 -8 -8 -8 -8 -8 -8 -9
-1 -1 -1 -1 -2 -2 -2 -3 -3 -3 -3 -3 -3 -3 -4 -4 -4 -4 -4 -5 -5 -5 -5 -5 -6 -6 -6 -6 -6 -6 -7 -7 -7 -7 -7 -7 -8 -8 -8 -8 -9 -9 -9
-1 -1 -1 -2 -2 -2 -3 -3 -3 -4 -4 -4 -4 -4 -5 -5 -5 -5 -5 -5 -5 -5 -6 -6 -6 -6 -6 -6 -7 -7 -7 -7 -7 -7 -7 -8 -8 -8 -8 -9 -9 -9 -9
-2 -2 -2 -2 -2 -3 -3 -3 -4 -4 -4 -4 -4 -4 -5 -5 -5 -5 -5 -5 -6 -6 -6 -6 -6 -7 -7 -7 -7 -7 -7 -7 -7 -7 -8 -8 -8 -8 -9 -9 -9 -9 -9
-2 -2 -2 -3 -3 -3 -3 -4 -4 -4 -4 -5 -5 -5 -5 -5 -5 -6 -6 -6 -6 -6 -7 -7 -7 -7 -7 -7 -7 -7 -7 -7 -7 -8 -8 -8 -8 -8 -9 -9 -9 -9 -9
-2 -3 -3 -3 -3 -4 -4 -4 -4 -5 -5 -5 -5 -5 -5 -5 -6 -6 -6 -6 -6 -7 -7 -7 -7 -7 -7 -7 -7 -7 -8 -8 -8 -8 -8 -8 -8 -9 -9 -9 -9 -9 -10
-3 -3 -4 -4 -4 -4 -4 -4 -5 -5 -5 -5 -5 -5 -6 -6 -6 -6 -6 -6 -7 -7 -7 -7 -7 -7 -7 -7 -7 -8 -8 -8 -8 -8 -8 -9 -9 -9 -9 -9 -9 -10 -10
-3 -4 -4 -4 -4 -4 -5 -5 -5 -5 -5 -5 -5 -6 -6 -6 -6 -6 -7 -7 -7 -7 -7 -7 -7 -7 -7 -7 -8 -8 -8 -8 -8 -8 -9 -9 -9 -9 -9 -9 -10 -10 -10
Wind_Speed
2 2 2 3 2 3 3 4 4 4 4 4 4 4 4 4 4 4 4 4 4 4 3 4 4 3 3 3 2 2 3 3 6 5 3 3 3 5 7 9 10 10 11
2 2 2 3 2 3 4 4 4 4 4 4 4 4 5 5 5 5 5 5 5 5 5 5 5 4 4 3 3 4 4 4 4 6 4 3 4 5 5 6 8 9 10
2 2 2 3 3 3 4 4 4 4 4 4 4 5 5 5 5 6 6 6 6 6 6 6 6 5 5 4 4 4 4 4 4 5 5 3 3 4 5 5 6 6 8
3 2 3 4 4 4 4 4 4 4 4 5 5 5 6 6 6 6 6 6 6 7 7 7 7 7 7 6 5 6 5 4 4 5 5 4 4 4 3 4 5 5 6
3 3 4 4 4 4 4 4 4 4 5 5 5 5 5 5 6 6 6 7 7 7 7 7 7 9 10 8 6 5 5 4 4 5 5 4 4 3 3 3 5 6 5
3 4 4 4 4 4 4 4 4 5 5 5 5 6 6 6 10 11 8 7 7 7 7 7 7 9 11 12 12 10 8 6 6 5 5 6 6 4 3 4 4 5 5
4 4 4 4 5 5 5 4 5 5 5 5 6 6 7 9 13 13 13 7 7 7 7 7 6 7 9 6 9 10 9 11 10 6 6 7 5 4 3 4 4 5 5
4 5 5 4 5 5 4 5 5 5 5 6 6 7 7 9 13 13 13 8 7 8 8 8 8 7 7 7 6 6 6 7 8 6 6 6 6 5 5 5 5 5 5
5 5 5 5 5 5 5 6 5 5 6 6 6 7 8 10 13 14 13 6 6 8 8 8 8 7 11 12 7 7 7 7 9 11 11 10 10 9 6 3 3 4 5
6 6 5 5 5 6 6 6 5 5 6 6 7 7 8 9 13 14 13 5 6 6 6 7 11 10 11 12 7 7 8 7 6 5 7 8 6 6 7 3 3 4 4
6 6 6 5 6 6 6 5 5 6 6 7 8 8 8 10 12 15 14 6 7 7 6 6 7 12 13 13 11 8 10 8 5 5 5 5 4 3 3 3 3 4 4
5 6 6 6 6 5 5 6 5 5 6 7 7 9 7 8 10 12 14 13 11 7 7 6 7 12 13 13 10 10 12 9 4 4 4 5 4 4 4 4 4 5 6
5 6 6 6 6 5 5 6 6 5 5 7 6 8 8 6 7 12 14 14 14 8 6 9 10 12 11 9 11 11 9 5 4 5 5 5 4 4 3 3 3 4 5
6 7 6 6 7 6 5 5 5 6 6 7 7 8 8 7 6 5 6 7 9 8 6 8 11 11 9 8 8 6 4 4 4 5 4 4 3 3 3 2 3 3 3
7 7 7 6 6 7 7 6 7 8 8 9 8 8 8 9 9 11 8 6 5 6 5 3 3 4 4 4 4 4 4 4 5 4 4 4 4 4 3 3 3 3 3
7 7 6 6 6 6 7 8 11 12 15 16 16 14 11 14 16 16 15 14 13 11 7 5 6 6 6 6 6 5 5 5 5 4 4 4 4 4 4 3 3 4 5
7 8 6 6 6 6 6 7 9 9 11 14 15 16 15 16 17 16 15 14 13 11 7 6 6 6 6 6 6 5 5 5 5 5 5 5 4 4 4 4 4 4 5
7 8 8 7 7 7 7 7 7 9 9 8 9 13 15 15 15 15 14 10 8 7 6 6 6 6 6 6 6 5 5 5 4 5 5 5 4 4 4 4 4 5 5
7 6 6 6 7 7 7 7 7 8 9 9 8 8 10 11 12 12 10 6 6 6 6 6 6 6 6 6 6 5 5 5 5 5 5 5 5 4 5 5 5 7 6
7 10 9 7 7 7 7 7 8 8 8 8 8 7 5 6 6 6 5 5 6 6 6 6 6 6 6 6 6 5 5 5 5 5 5 5 5 5 5 6 5 5 5
6 8 10 8 7 8 8 8 8 8 8 9 8 9 10 7 7 6 5 5 6 6 6 6 6 6 6 5 5 6 6 5 5 5 5 5 5 5 5 5 5 5 5
6 7 7 7 7 8 8 8 8 8 9 10 9 9 12 8 6 6 6 6 6 6 6 6 6 5 6 6 6 6 6 6 6 5 5 5 5 5 5 5 5 5 5
6 7 8 8 8 10 10 8 8 8 9 9 8 7 7 6 6 6 6 6 5 5 5 5 5 5 5 5 6 6 6 6 6 6 5 5 5 5 5 5 6 6 6
7 8 8 8 8 8 8 9 8 9 9 8 8 7 7 6 6 7 6 5 5 5 5 5 6 7 7 6 5 6 7 7 6 6 7 6 6 5 5 5 5 6 6
7 8 8 8 9 9 9 9 9 8 8 8 7 7 7 6 6 6 5 5 6 5 6 6 5 6 7 7 6 6 8 10 8 7 6 6 6 6 6 6 5 6 6
8 8 8 8 8 8 9 9 9 9 8 8 7 7 6 6 6 6 5 5 5 5 5 5 6 6 6 6 8 9 10 10 10 9 6 5 6 6 6 5 6 6 6
Wind_Direction
313 312 300 290 279 263 254 256 255 254 249 245 244 242 243 242 233 224 232 230 232 242 240 234 243 237 237 240 231 224 226 223 254 274 269 285 295 308 321 325 324 324 326
304 307 294 292 294 283 276 273 264 258 255 248 245 244 245 243 234 226 233 232 229 237 240 236 245 241 239 238 231 231 234 229 239 271 282 285 281 297 305 311 322 323 320
306 305 302 300 296 287 283 280 270 263 265 259 245 244 247 245 240 233 228 231 230 234 233 232 238 232 242 242 236 238 241 245 237 259 277 275 277 291 303 306 310 310 320
306 301 292 287 282 280 284 283 278 269 266 263 253 249 248 248 243 239 233 233 234 236 234 233 233 229 235 236 238 236 236 243 245 255 270 278 276 281 293 305 315 316 316
294 288 279 282 285 287 289 288 288 281 270 263 259 257 253 249 246 239 235 233 233 238 238 236 236 237 239 238 237 229 224 234 243 253 266 278 283 288 292 293 306 313 305
280 277 279 284 289 289 288 291 292 287 280 270 261 259 258 258 261 257 248 233 232 234 242 243 244 249 250 250 251 246 235 232 236 244 259 268 275 270 273 287 302 317 312
283 284 285 285 287 286 288 291 286 283 280 276 270 262 260 262 268 268 261 246 232 234 237 241 247 245 247 244 254 258 258 255 250 243 246 257 264 256 264 277 279 282 280
285 286 285 283 284 287 287 283 281 279 277 275 273 267 265 268 272 271 268 256 238 234 234 234 238 244 238 234 233 241 245 252 256 253 243 250 248 246 240 255 267 279 275
281 281 283 281 282 286 284 282 280 279 280 276 274 269 266 271 273 272 268 251 243 240 236 233 235 238 248 249 241 240 248 252 258 256 258 262 268 273 270 260 272 291 295
274 277 281 279 275 275 276 279 278 273 275 279 278 269 263 267 272 272 267 247 244 246 242 238 244 244 249 251 242 238 249 251 242 254 262 268 271 277 278 254 237 259 278
275 282 283 277 271 271 275 274 277 280 283 282 281 279 267 266 273 272 267 248 237 242 244 242 240 249 252 252 249 239 248 251 235 237 245 250 252 252 257 254 235 231 244
280 282 281 279 276 278 273 277 274 271 280 284 285 287 275 266 270 271 270 263 252 240 244 241 240 250 255 256 255 249 253 256 238 235 242 246 246 248 248 250 249 245 242
282 281 282 283 278 271 266 273 279 271 271 279 279 282 285 274 268 273 274 269 261 251 244 245 248 252 256 256 254 255 253 243 231 239 246 246 237 236 240 256 263 266 268
277 281 281 281 284 278 267 260 263 267 268 272 274 277 282 282 271 263 262 269 263 257 254 251 253 253 249 245 249 252 240 230 231 239 248 245 227 225 234 237 256 276 281
274 276 277 273 273 278 273 260 258 254 252 260 266 266 272 278 274 271 269 257 243 241 246 239 232 236 235 236 235 232 227 230 237 231 236 242 240 241 246 241 244 258 259
275 275 273 273 273 272 278 285 267 259 268 266 265 268 267 267 277 277 273 268 263 254 252 237 236 235 237 238 238 236 229 228 228 227 230 235 238 238 246 244 241 246 260
262 271 275 274 273 276 277 282 292 291 274 270 271 274 273 276 277 276 273 268 263 255 250 241 238 236 236 235 234 232 233 230 224 224 231 233 233 234 238 243 247 253 260
262 268 269 269 270 273 274 274 275 283 293 290 283 280 281 280 279 276 272 270 259 248 241 241 241 237 232 231 230 230 232 230 227 229 229 227 223 225 232 237 240 247 260
267 268 267 268 270 271 272 273 274 274 277 283 289 287 282 282 281 276 271 256 250 249 244 242 240 236 231 229 228 225 225 228 227 224 227 225 220 220 230 234 239 254 261
267 270 272 272 273 273 272 272 274 273 275 277 279 280 284 281 274 268 255 246 248 251 248 244 241 235 229 227 226 223 224 227 225 224 226 223 219 218 228 234 238 247 253
269 274 275 276 270 270 272 271 271 271 272 274 273 273 275 272 268 264 259 250 246 248 248 246 242 236 231 225 222 222 223 227 225 223 222 221 217 222 229 233 239 244 253
264 269 271 271 273 273 274 270 269 269 270 272 275 276 277 272 263 260 257 254 247 244 242 243 243 236 227 222 218 218 222 225 224 218 218 219 219 223 228 232 239 246 252
262 268 273 272 271 276 279 272 269 268 269 270 271 272 272 264 262 260 258 255 250 246 242 237 240 240 231 224 218 215 219 224 220 212 213 219 220 222 226 233 238 246 253
259 264 270 274 274 272 272 273 271 269 268 268 268 268 268 265 264 262 258 256 251 247 241 236 235 235 230 227 225 222 224 225 220 218 213 216 219 223 226 235 240 245 253
261 265 269 271 273 273 274 274 273 270 269 268 266 265 264 263 262 262 258 253 250 248 243 237 235 233 231 228 227 227 229 230 228 222 215 214 216 220 226 235 241 249 254
265 266 269 270 271 272 272 273 273 271 269 267 264 262 262 261 260 259 257 250 249 249 247 240 231 229 229 230 230 232 235 236 233 229 222 214 214 224 228 238 241 248 254
Height
1500 1499 1499 1498 1498 1497 1496 1495 1494 1494 1493 1491 1491 1490 1489 1488 1487 1486 1485 1484 1483 1482 1481 1480 1479 1478 1477 1476 1475 1474 1473 1472 1469 1466 1466 1465 1463 1461 1460 1457 1455 1453 1451
1498 1497 1496 1495 1494 1494 1493 1492 1491 1490 1489 1487 1486 1485 1484 1483 1482 1481 1480 1479 1478 1477 1476 1475 1474 1474 1472 1472 1471 1469 1468 1467 1465 1462 1461 1460 1459 1457 1455 1453 1451 1449 1447
1495 1494 1493 1492 1491 1490 1489 1488 1487 1485 1484 1483 1482 1481 1479 1478 1477 1476 1475 1474 1473 1472 1471 1470 1469 1468 1467 1467 1466 1464 1463 1462 1460 1458 1456 1455 1454 1453 1450 1449 1447 1445 1443
1492 1491 1490 1489 1488 1486 1485 1484 1482 1481 1480 1478 1477 1476 1474 1473 1472 1471 1470 1469 1468 1467 1466 1465 1464 1463 1462 1461 1460 1459 1458 1457 1456 1454 1452 1451 1449 1448 1446 1444 1441 1440 1438
1489 1488 1486 1485 1484 1483 1481 1480 1478 1477 1475 1474 1472 1471 1469 1468 1467 1465 1464 1463 1462 1461 1460 1459 1458 1458 1457 1456 1455 1454 1453 1452 1451 1449 1448 1446 1445 1443 1442 1439 1437 1435 1433
1486 1484 1483 1482 1480 1479 1477 1476 1474 1472 1471 1469 1467 1465 1464 1462 1461 1460 1458 1457 1456 1455 1454 1453 1452 1452 1451 1450 1449 1448 1448 1447 1445 1445 1443 1441 1440 1439 1438 1436 1433 1430 1427
1482 1481 1479 1478 1476 1474 1473 1471 1469 1467 1466 1464 1462 1460 1458 1457 1456 1454 1453 1451 1450 1449 1448 1447 1446 1446 1445 1444 1444 1443 1442 1441 1441 1440 1438 1437 1435 1434 1433 1431 1429 1427 1424
1479 1477 1475 1473 1471 1470 1468 1466 1464 1462 1460 1458 1456 1454 1452 1451 1450 1448 1447 1445 1443 1442 1442 1441 1440 1440 1439 1438 1437 1436 1436 1435 1435 1434 1433 1432 1431 1430 1428 1427 1425 1422 1420
1475 1473 1471 1469 1467 1465 1463 1461 1459 1457 1454 1452 1450 1448 1446 1445 1444 1442 1440 1438 1437 1436 1435 1435 1434 1433 1433 1432 1431 1430 1429 1429 1429 1428 1427 1426 1425 1425 1423 1422 1420 1418 1415
1470 1469 1467 1465 1462 1460 1458 1456 1454 1451 1449 1447 1445 1443 1441 1439 1437 1436 1434 1432 1430 1429 1428 1428 1427 1427 1426 1426 1425 1424 1423 1423 1423 1422 1421 1421 1420 1419 1418 1417 1415 1413 1411
1466 1464 1462 1460 1458 1455 1453 1451 1449 1446 1444 1441 1439 1437 1435 1433 1431 1429 1427 1425 1423 1422 1421 1421 1421 1421 1420 1420 1419 1418 1417 1418 1417 1416 1415 1415 1414 1413 1412 1411 1410 1409 1407
1461 1459 1457 1455 1453 1450 1448 1445 1443 1441 1438 1435 1432 1430 1428 1426 1424 1422 1420 1419 1417 1416 1415 1414 1414 1414 1414 1413 1413 1412 1412 1412 1411 1410 1409 1408 1408 1407 1407 1406 1405 1404 1403
1456 1454 1452 1450 1448 1445 1442 1440 1437 1435 1432 1429 1426 1423 1421 1419 1417 1416 1414 1412 1411 1410 1409 1408 1408 1408 1407 1407 1407 1406 1406 1406 1405 1405 1404 1403 1403 1402 1401 1400 1399 1398 1397
1451 1449 1447 1444 1442 1439 1437 1434 1431 1428 1426 1422 1420 1417 1414 1412 1410 1409 1407 1405 1404 1403 1402 1402 1402 1401 1401 1401 1401 1400 1400 1400 1399 1399 1398 1398 1397 1396 1396 1395 1394 1392 1391
1445 1443 1441 1438 1435 1433 1430 1428 1425 1422 1420 1417 1414 1411 1408 1405 1404 1402 1400 1399 1398 1397 1396 1396 1395 1395 1395 1395 1394 1394 1394 1394 1394 1393 1393 1392 1392 1391 1390 1390 1389 1387 1386
1439 1437 1434 1432 1429 1426 1423 1420 1418 1416 1413 1410 1407 1405 1401 1400 1397 1396 1394 1393 1392 1391 1391 1389 1389 1389 1389 1388 1388 1388 1388 1388 1388 1388 1387 1387 1386 1386 1385 1385 1384 1383 1381
1434 1431 1428 1426 1423 1420 1417 1413 1410 1408 1406 1403 1401 1398 1396 1393 1391 1389 1388 1387 1386 1385 1384 1383 1383 1383 1382 1383 1383 1383 1382 1382 1382 1382 1382 1381 1381 1380 1380 1379 1379 1378 1377
1428 1425 1422 1420 1417 1414 1410 1407 1404 1400 1397 1394 1393 1391 1389 1387 1385 1383 1382 1381 1379 1379 1378 1377 1377 1377 1377 1376 1376 1377 1377 1377 1376 1376 1376 1376 1375 1375 1374 1374 1374 1373 1372
1421 1419 1416 1413 1410 1407 1404 1401 1397 1394 1391 1388 1385 1384 1382 1380 1378 1377 1376 1375 1373 1373 1372 1371 1371 1371 1370 1370 1370 1370 1371 1371 1371 1370 1370 1370 1370 1370 1369 1369 1369 1368 1367
1415 1412 1410 1406 1403 1400 1397 1394 1391 1388 1385 1382 1379 1377 1376 1374 1372 1371 1370 1369 1367 1366 1366 1365 1365 1364 1364 1364 1364 1364 1364 1365 1365 1365 1365 1365 1365 1364 1364 1364 1363 1363 1362
1408 1406 1403 1400 1397 1394 1391 1387 1385 1382 1379 1376 1374 1372 1370 1368 1366 1365 1364 1363 1362 1361 1360 1359 1359 1358 1358 1358 1358 1358 1358 1359 1359 1359 1359 1359 1359 1359 1359 1359 1358 1358 1357
1402 1399 1396 1393 1390 1387 1384 1381 1378 1375 1372 1370 1367 1366 1364 1362 1361 1359 1358 1357 1356 1355 1354 1353 1352 1352 1352 1352 1352 1353 1353 1353 1354 1354 1354 1354 1354 1354 1354 1354 1353 1353 1352
1395 1392 1389 1386 1383 1380 1377 1374 1372 1369 1366 1364 1362 1359 1358 1356 1355 1353 1352 1351 1350 1349 1348 1348 1347 1346 1346 1346 1347 1347 1347 1348 1348 1349 1349 1349 1349 1349 1349 1349 1348 1348 1347
1388 1385 1382 1379 1376 1373 1370 1367 1365 1362 1360 1358 1356 1354 1352 1350 1349 1348 1346 1345 1344 1343 1343 1342 1342 1341 1341 1341 1342 1342 1342 1343 1343 1344 1344 1344 1344 1344 1344 1344 1344 1343 1342
1381 1378 1375 1372 1369 1366 1363 1361 1358 1356 1354 1352 1350 1348 1346 1345 1343 1342 1341 1340 1339 1338 1337 1337 1337 1336 1336 1336 1337 1337 1338 1338 1339 1339 1339 1339 1340 1340 1340 1339 1339 1339 1338
1374 1371 1368 1365 1362 1360 1357 1354 1352 1349 1347 1346 1344 1342 1340 1339 1338 1337 1336 1335 1334 1333 1333 1332 1332 1332 1332 1332 1332 1333 1333 1334 1334 1334 1335 1335 1335 1335 1335 1335 1335 1334 1333